Celandine — ONDN — position and weather

sailwx.info

Track history (hours):
 
Tides and Currents Weather Stations Pressure Air Temp Water Temp Dewpoint Dewpoint Depression Visibility Wind Speed Wind Dir Waves Ship Positions

Celandine

Last reported at 2014-Nov-23 10:33 UTC. Time now 2014-Nov-23 11:08 UTC.
Position N 51°21' E 003°13'.

Length 162 m; draft 6 m.

Type: Ship (hazmat cat A). MMSI: 205476000.

Date/timePositionNaut miles runAvg speedWind from/ knotsBaromVisibWave heightAir tempDewpointWater temp
2014-Nov-23 10:33N 51°21' E 003°13'0 0.0
2014-Nov-23 09:33N 51°21' E 003°13'0 0.0
2014-Nov-23 08:33N 51°21' E 003°13'0 0.0
2014-Nov-23 07:33N 51°21' E 003°13'0 0.0
2014-Nov-23 06:33N 51°21' E 003°13'0 0.0
2014-Nov-23 05:33N 51°21' E 003°13'0 0.0
2014-Nov-23 04:33N 51°21' E 003°13'0 0.0
2014-Nov-23 03:33N 51°21' E 003°13'0 0.0
2014-Nov-23 02:33N 51°21' E 003°13'2 1.9
2014-Nov-23 01:33N 51°22' E 003°11'10 9.3
2014-Nov-23 00:31N 51°31' E 003°06'1515.4
2014-Nov-22 23:33N 51°46' E 003°11'1716.2
2014-Nov-22 22:29N 52°02' E 003°21'3717.3
2014-Nov-22 20:21N 52°34' E 003°50'3616.4
2014-Nov-22 18:08N 53°07' E 004°17'3914.8
2014-Nov-22 15:32N 53°40' E 004°49'1616.4
2014-Nov-22 14:32N 53°50' E 005°11'1717.0
2014-Nov-22 13:33N 54°00' E 005°34'1615.7
2014-Nov-22 12:33N 54°14' E 005°46'6015.0
2014-Nov-22 08:33N 55°11' E 006°19'20115.2
2014-Nov-21 19:20N 57°45' E 010°14'1316.9
2014-Nov-21 18:33N 57°50' E 010°38'1616.5
2014-Nov-21 17:33N 57°44' E 011°06'1616.2
2014-Nov-21 16:33N 57°37' E 011°33'1110.9
2014-Nov-21 15:31N 57°41' E 011°52'0 0.0
2014-Nov-21 14:31N 57°41' E 011°52'0 0.0
2014-Nov-21 13:31N 57°41' E 011°52'0 0.0
2014-Nov-21 12:31N 57°41' E 011°52'0 0.0
2014-Nov-21 11:31N 57°41' E 011°52'0 0.0
2014-Nov-21 10:31N 57°41' E 011°52'0 0.0
2014-Nov-21 09:31N 57°41' E 011°52'0 0.0
2014-Nov-21 08:31N 57°41' E 011°52'0 0.0
2014-Nov-21 07:31N 57°41' E 011°52'0 0.1
2014-Nov-21 06:34N 57°41' E 011°52'1010.2
2014-Nov-21 05:34N 57°37' E 011°35'1313.3
2014-Nov-21 04:33N 57°37' E 011°10'1312.7
2014-Nov-21 03:33N 57°44' E 010°51'18213.8
2014-Nov-20 14:20N 55°43' E 006°43'1516.0
2014-Nov-20 13:23N 55°29' E 006°30'1416.6
2014-Nov-20 12:32N 55°16' E 006°23'6815.9
2014-Nov-20 08:15N 54°11' E 005°45'1116.1
2014-Nov-20 07:33N 54°01' E 005°37'1717.1
2014-Nov-20 06:33N 53°50' E 005°15'1717.4
2014-Nov-20 05:33N 53°38' E 004°53'1717.3
2014-Nov-20 04:32N 53°22' E 004°40'1918.2
2014-Nov-20 03:29N 53°05' E 004°25'1617.9
2014-Nov-20 02:33N 52°51' E 004°13'1717.2
2014-Nov-20 01:33N 52°37' E 003°55'3817.2
2014-Nov-19 23:22N 52°04' E 003°24'1417.0
2014-Nov-19 22:32N 51°51' E 003°18'1616.1
2014-Nov-19 21:31N 51°36' E 003°08'1111.7
2014-Nov-19 20:33N 51°24' E 003°05'6 5.3
2014-Nov-19 19:21N 51°21' E 003°13'0 0.0
2014-Nov-19 18:33N 51°21' E 003°13'0 0.0
2014-Nov-19 17:12N 51°21' E 003°13'0 0.0
2014-Nov-19 16:27N 51°21' E 003°13'0 0.0
2014-Nov-19 15:18N 51°21' E 003°13'0 0.0
2014-Nov-19 14:33N 51°21' E 003°13'0 0.0
2014-Nov-19 13:30N 51°21' E 003°13'0 0.0
2014-Nov-19 12:33N 51°21' E 003°13'10 9.4
2014-Nov-19 11:32N 51°26' E 003°00'1313.1
2014-Nov-19 10:31N 51°38' E 003°06'1212.1
2014-Nov-19 09:33N 51°49' E 003°14'11915.9
2014-Nov-19 02:06N 53°36' E 004°40'915.9
2014-Nov-19 01:33N 53°41' E 004°52'1616.5
2014-Nov-19 00:33N 53°51' E 005°14'1717.0
2014-Nov-18 23:33N 54°02' E 005°36'7216.2
2014-Nov-18 19:08N 55°09' E 006°18'20315.9
2014-Nov-18 06:25N 57°45' E 010°13'1518.0
2014-Nov-18 05:33N 57°50' E 010°40'1817.7
2014-Nov-18 04:33N 57°43' E 011°10'1716.6
2014-Nov-18 03:33N 57°36' E 011°38'9 8.9
2014-Nov-18 02:32N 57°41' E 011°52'0 0.0
2014-Nov-18 01:32N 57°41' E 011°52'0 0.0
2014-Nov-18 00:33N 57°41' E 011°52'0 0.0
2014-Nov-17 23:33N 57°41' E 011°52'0 0.0
2014-Nov-17 22:33N 57°41' E 011°52'0 0.0
2014-Nov-17 21:33N 57°41' E 011°52'0 0.0
2014-Nov-17 20:33N 57°41' E 011°52'0 0.0
2014-Nov-17 19:33N 57°41' E 011°52'0 0.0
2014-Nov-17 18:33N 57°41' E 011°52'0 0.0
2014-Nov-17 17:33N 57°41' E 011°52'6 6.3
2014-Nov-17 16:34N 57°38' E 011°42'9 9.0
2014-Nov-17 15:33N 57°37' E 011°25'1312.7
2014-Nov-17 14:32N 57°39' E 011°01'1313.8
2014-Nov-17 13:34N 57°48' E 010°43'19612.9
2014-Nov-16 22:19N 55°29' E 006°30'1114.3
2014-Nov-16 21:32N 55°19' E 006°23'1514.8
2014-Nov-16 20:33N 55°05' E 006°16'5215.0
2014-Nov-16 17:04N 54°16' E 005°46'815.5
2014-Nov-16 16:33N 54°08' E 005°43'1515.1
2014-Nov-16 15:33N 53°56' E 005°27'1616.2
2014-Nov-16 14:33N 53°45' E 005°07'1616.6
2014-Nov-16 13:33N 53°33' E 004°48'1716.9
2014-Nov-16 12:33N 53°17' E 004°35'3517.3
2014-Nov-16 10:32N 52°46' E 004°09'1717.2
2014-Nov-16 09:31N 52°34' E 003°49'1716.8
2014-Nov-16 08:30N 52°20' E 003°33'1717.0
2014-Nov-16 07:31N 52°03' E 003°25'1616.2
2014-Nov-16 06:33N 51°49' E 003°15'1615.8
2014-Nov-16 05:32N 51°34' E 003°07'1010.3
2014-Nov-16 04:33N 51°24' E 003°08'4 3.8
2014-Nov-16 03:22N 51°21' E 003°13'0 0.0
2014-Nov-16 02:31N 51°21' E 003°13'0 0.0
2014-Nov-16 01:31N 51°21' E 003°13'0 0.0
2014-Nov-16 00:28N 51°21' E 003°13'0 0.0
2014-Nov-15 23:31N 51°21' E 003°13'0 0.0
2014-Nov-15 22:31N 51°21' E 003°13'0 0.0
2014-Nov-15 21:28N 51°21' E 003°13'0 0.0
2014-Nov-15 19:31N 51°21' E 003°13'3 2.9
2014-Nov-15 18:33N 51°22' E 003°10'3 2.1
2014-Nov-15 17:13N 51°21' E 003°13'0 0.0
2014-Nov-15 16:13N 51°21' E 003°13'0 0.0
2014-Nov-15 14:26N 51°21' E 003°13'7 7.9
2014-Nov-15 13:33N 51°24' E 003°04'1816.3
2014-Nov-15 12:28N 51°34' E 002°41'1415.5
2014-Nov-15 11:33N 51°39' E 002°19'1515.2
2014-Nov-15 10:34N 51°36' E 001°55'1717.0
2014-Nov-15 09:34N 51°29' E 001°30'1717.5
2014-Nov-15 08:34N 51°30' E 001°02'1818.2
2014-Nov-15 07:34N 51°30' E 000°33'1110.6
2014-Nov-15 06:34N 51°28' E 000°16'1 1.1
2014-Nov-15 05:33N 51°28' E 000°15'0 0.0
2014-Nov-15 04:33N 51°28' E 000°15'0 0.0
2014-Nov-15 03:33N 51°28' E 000°15'0 0.0
2014-Nov-15 02:33N 51°28' E 000°15'0 0.0
2014-Nov-15 01:33N 51°28' E 000°15'0 0.0
2014-Nov-15 00:33N 51°28' E 000°15'1 1.5
2014-Nov-14 23:34N 51°27' E 000°17'9 8.8
2014-Nov-14 22:33N 51°30' E 000°30'1413.9
2014-Nov-14 21:33N 51°29' E 000°53'1414.3
2014-Nov-14 20:33N 51°29' E 001°16'1514.9
2014-Nov-14 19:33N 51°30' E 001°39'1515.1
2014-Nov-14 18:33N 51°32' E 002°04'1514.6
2014-Nov-14 17:30N 51°29' E 002°28'2814.6
2014-Nov-14 15:33N 51°22' E 003°12'1 0.2
2014-Nov-14 08:11N 51°21' E 003°13'6 9.8
2014-Nov-14 07:33N 51°24' E 003°05'1613.6
2014-Nov-14 06:24N 51°21' E 002°40'1214.4
2014-Nov-14 05:33N 51°19' E 002°21'1413.9
2014-Nov-14 04:33N 51°24' E 001°60'1514.6
2014-Nov-14 03:33N 51°29' E 001°38'1414.5
2014-Nov-14 02:34N 51°29' E 001°15'1414.4
2014-Nov-14 01:33N 51°29' E 000°52'1515.0
2014-Nov-14 00:34N 51°29' E 000°28'8 7.9
2014-Nov-13 23:33N 51°28' E 000°15'0 0.0
2014-Nov-13 22:32N 51°28' E 000°15'0 0.0
2014-Nov-13 21:32N 51°28' E 000°15'0 0.0
2014-Nov-13 20:32N 51°28' E 000°15'0 0.0
2014-Nov-13 19:32N 51°28' E 000°15'0 0.0
2014-Nov-13 18:32N 51°28' E 000°15'0 0.4
2014-Nov-13 17:34N 51°28' E 000°16'7 7.1
2014-Nov-13 16:33N 51°28' E 000°27'1414.0
2014-Nov-13 15:33N 51°29' E 000°49'1716.8
2014-Nov-13 14:33N 51°29' E 001°16'1514.9
2014-Nov-13 13:33N 51°32' E 001°40'1616.1
2014-Nov-13 12:33N 51°38' E 002°04'1514.6
2014-Nov-13 11:33N 51°35' E 002°27'  
Track history (hours):
 
Tides and Currents Weather Stations Pressure Air Temp Water Temp Dewpoint Dewpoint Depression Visibility Wind Speed Wind Dir Waves Ship Positions

Celandine

Last reported at 2014-Nov-23 10:33 UTC. Time now 2014-Nov-23 11:08 UTC.
Position N 51°21' E 003°13'.

Length 162 m; draft 6 m.

Type: Ship (hazmat cat A). MMSI: 205476000.

Date/timePositionNaut miles runAvg speedWind from/ knotsBaromVisibWave heightAir tempDewpointWater temp
2014-Nov-23 10:33N 51°21' E 003°13'0 0.0
2014-Nov-23 09:33N 51°21' E 003°13'0 0.0
2014-Nov-23 08:33N 51°21' E 003°13'0 0.0
2014-Nov-23 07:33N 51°21' E 003°13'0 0.0
2014-Nov-23 06:33N 51°21' E 003°13'0 0.0
2014-Nov-23 05:33N 51°21' E 003°13'0 0.0
2014-Nov-23 04:33N 51°21' E 003°13'0 0.0
2014-Nov-23 03:33N 51°21' E 003°13'0 0.0
2014-Nov-23 02:33N 51°21' E 003°13'2 1.9
2014-Nov-23 01:33N 51°22' E 003°11'10 9.3
2014-Nov-23 00:31N 51°31' E 003°06'1515.4
2014-Nov-22 23:33N 51°46' E 003°11'1716.2
2014-Nov-22 22:29N 52°02' E 003°21'3717.3
2014-Nov-22 20:21N 52°34' E 003°50'3616.4
2014-Nov-22 18:08N 53°07' E 004°17'3914.8
2014-Nov-22 15:32N 53°40' E 004°49'1616.4
2014-Nov-22 14:32N 53°50' E 005°11'1717.0
2014-Nov-22 13:33N 54°00' E 005°34'1615.7
2014-Nov-22 12:33N 54°14' E 005°46'6015.0
2014-Nov-22 08:33N 55°11' E 006°19'20115.2
2014-Nov-21 19:20N 57°45' E 010°14'1316.9
2014-Nov-21 18:33N 57°50' E 010°38'1616.5
2014-Nov-21 17:33N 57°44' E 011°06'1616.2
2014-Nov-21 16:33N 57°37' E 011°33'1110.9
2014-Nov-21 15:31N 57°41' E 011°52'0 0.0
2014-Nov-21 14:31N 57°41' E 011°52'0 0.0
2014-Nov-21 13:31N 57°41' E 011°52'0 0.0
2014-Nov-21 12:31N 57°41' E 011°52'0 0.0
2014-Nov-21 11:31N 57°41' E 011°52'0 0.0
2014-Nov-21 10:31N 57°41' E 011°52'0 0.0
2014-Nov-21 09:31N 57°41' E 011°52'0 0.0
2014-Nov-21 08:31N 57°41' E 011°52'0 0.0
2014-Nov-21 07:31N 57°41' E 011°52'0 0.1
2014-Nov-21 06:34N 57°41' E 011°52'1010.2
2014-Nov-21 05:34N 57°37' E 011°35'1313.3
2014-Nov-21 04:33N 57°37' E 011°10'1312.7
2014-Nov-21 03:33N 57°44' E 010°51'18213.8
2014-Nov-20 14:20N 55°43' E 006°43'1516.0
2014-Nov-20 13:23N 55°29' E 006°30'1416.6
2014-Nov-20 12:32N 55°16' E 006°23'6815.9
2014-Nov-20 08:15N 54°11' E 005°45'1116.1
2014-Nov-20 07:33N 54°01' E 005°37'1717.1
2014-Nov-20 06:33N 53°50' E 005°15'1717.4
2014-Nov-20 05:33N 53°38' E 004°53'1717.3
2014-Nov-20 04:32N 53°22' E 004°40'1918.2
2014-Nov-20 03:29N 53°05' E 004°25'1617.9
2014-Nov-20 02:33N 52°51' E 004°13'1717.2
2014-Nov-20 01:33N 52°37' E 003°55'3817.2
2014-Nov-19 23:22N 52°04' E 003°24'1417.0
2014-Nov-19 22:32N 51°51' E 003°18'1616.1
2014-Nov-19 21:31N 51°36' E 003°08'1111.7
2014-Nov-19 20:33N 51°24' E 003°05'6 5.3
2014-Nov-19 19:21N 51°21' E 003°13'0 0.0
2014-Nov-19 18:33N 51°21' E 003°13'0 0.0
2014-Nov-19 17:12N 51°21' E 003°13'0 0.0
2014-Nov-19 16:27N 51°21' E 003°13'0 0.0
2014-Nov-19 15:18N 51°21' E 003°13'0 0.0
2014-Nov-19 14:33N 51°21' E 003°13'0 0.0
2014-Nov-19 13:30N 51°21' E 003°13'0 0.0
2014-Nov-19 12:33N 51°21' E 003°13'10 9.4
2014-Nov-19 11:32N 51°26' E 003°00'1313.1
2014-Nov-19 10:31N 51°38' E 003°06'1212.1
2014-Nov-19 09:33N 51°49' E 003°14'11915.9
2014-Nov-19 02:06N 53°36' E 004°40'915.9
2014-Nov-19 01:33N 53°41' E 004°52'1616.5
2014-Nov-19 00:33N 53°51' E 005°14'1717.0
2014-Nov-18 23:33N 54°02' E 005°36'7216.2
2014-Nov-18 19:08N 55°09' E 006°18'20315.9
2014-Nov-18 06:25N 57°45' E 010°13'1518.0
2014-Nov-18 05:33N 57°50' E 010°40'1817.7
2014-Nov-18 04:33N 57°43' E 011°10'1716.6
2014-Nov-18 03:33N 57°36' E 011°38'9 8.9
2014-Nov-18 02:32N 57°41' E 011°52'0 0.0
2014-Nov-18 01:32N 57°41' E 011°52'0 0.0
2014-Nov-18 00:33N 57°41' E 011°52'0 0.0
2014-Nov-17 23:33N 57°41' E 011°52'0 0.0
2014-Nov-17 22:33N 57°41' E 011°52'0 0.0
2014-Nov-17 21:33N 57°41' E 011°52'0 0.0
2014-Nov-17 20:33N 57°41' E 011°52'0 0.0
2014-Nov-17 19:33N 57°41' E 011°52'0 0.0
2014-Nov-17 18:33N 57°41' E 011°52'0 0.0
2014-Nov-17 17:33N 57°41' E 011°52'6 6.3
2014-Nov-17 16:34N 57°38' E 011°42'9 9.0
2014-Nov-17 15:33N 57°37' E 011°25'1312.7
2014-Nov-17 14:32N 57°39' E 011°01'1313.8
2014-Nov-17 13:34N 57°48' E 010°43'19612.9
2014-Nov-16 22:19N 55°29' E 006°30'1114.3
2014-Nov-16 21:32N 55°19' E 006°23'1514.8
2014-Nov-16 20:33N 55°05' E 006°16'5215.0
2014-Nov-16 17:04N 54°16' E 005°46'815.5
2014-Nov-16 16:33N 54°08' E 005°43'1515.1
2014-Nov-16 15:33N 53°56' E 005°27'1616.2
2014-Nov-16 14:33N 53°45' E 005°07'1616.6
2014-Nov-16 13:33N 53°33' E 004°48'1716.9
2014-Nov-16 12:33N 53°17' E 004°35'3517.3
2014-Nov-16 10:32N 52°46' E 004°09'1717.2
2014-Nov-16 09:31N 52°34' E 003°49'1716.8
2014-Nov-16 08:30N 52°20' E 003°33'1717.0
2014-Nov-16 07:31N 52°03' E 003°25'1616.2
2014-Nov-16 06:33N 51°49' E 003°15'1615.8
2014-Nov-16 05:32N 51°34' E 003°07'1010.3
2014-Nov-16 04:33N 51°24' E 003°08'4 3.8
2014-Nov-16 03:22N 51°21' E 003°13'0 0.0
2014-Nov-16 02:31N 51°21' E 003°13'0 0.0
2014-Nov-16 01:31N 51°21' E 003°13'0 0.0
2014-Nov-16 00:28N 51°21' E 003°13'0 0.0
2014-Nov-15 23:31N 51°21' E 003°13'0 0.0
2014-Nov-15 22:31N 51°21' E 003°13'0 0.0
2014-Nov-15 21:28N 51°21' E 003°13'0 0.0
2014-Nov-15 19:31N 51°21' E 003°13'3 2.9
2014-Nov-15 18:33N 51°22' E 003°10'3 2.1
2014-Nov-15 17:13N 51°21' E 003°13'0 0.0
2014-Nov-15 16:13N 51°21' E 003°13'0 0.0
2014-Nov-15 14:26N 51°21' E 003°13'7 7.9
2014-Nov-15 13:33N 51°24' E 003°04'1816.3
2014-Nov-15 12:28N 51°34' E 002°41'1415.5
2014-Nov-15 11:33N 51°39' E 002°19'1515.2
2014-Nov-15 10:34N 51°36' E 001°55'1717.0
2014-Nov-15 09:34N 51°29' E 001°30'1717.5
2014-Nov-15 08:34N 51°30' E 001°02'1818.2
2014-Nov-15 07:34N 51°30' E 000°33'1110.6
2014-Nov-15 06:34N 51°28' E 000°16'1 1.1
2014-Nov-15 05:33N 51°28' E 000°15'0 0.0
2014-Nov-15 04:33N 51°28' E 000°15'0 0.0
2014-Nov-15 03:33N 51°28' E 000°15'0 0.0
2014-Nov-15 02:33N 51°28' E 000°15'0 0.0
2014-Nov-15 01:33N 51°28' E 000°15'0 0.0
2014-Nov-15 00:33N 51°28' E 000°15'1 1.5
2014-Nov-14 23:34N 51°27' E 000°17'9 8.8
2014-Nov-14 22:33N 51°30' E 000°30'1413.9
2014-Nov-14 21:33N 51°29' E 000°53'1414.3
2014-Nov-14 20:33N 51°29' E 001°16'1514.9
2014-Nov-14 19:33N 51°30' E 001°39'1515.1
2014-Nov-14 18:33N 51°32' E 002°04'1514.6
2014-Nov-14 17:30N 51°29' E 002°28'2814.6
2014-Nov-14 15:33N 51°22' E 003°12'1 0.2
2014-Nov-14 08:11N 51°21' E 003°13'6 9.8
2014-Nov-14 07:33N 51°24' E 003°05'1613.6
2014-Nov-14 06:24N 51°21' E 002°40'1214.4
2014-Nov-14 05:33N 51°19' E 002°21'1413.9
2014-Nov-14 04:33N 51°24' E 001°60'1514.6
2014-Nov-14 03:33N 51°29' E 001°38'1414.5
2014-Nov-14 02:34N 51°29' E 001°15'1414.4
2014-Nov-14 01:33N 51°29' E 000°52'1515.0
2014-Nov-14 00:34N 51°29' E 000°28'8 7.9
2014-Nov-13 23:33N 51°28' E 000°15'0 0.0
2014-Nov-13 22:32N 51°28' E 000°15'0 0.0
2014-Nov-13 21:32N 51°28' E 000°15'0 0.0
2014-Nov-13 20:32N 51°28' E 000°15'0 0.0
2014-Nov-13 19:32N 51°28' E 000°15'0 0.0
2014-Nov-13 18:32N 51°28' E 000°15'0 0.4
2014-Nov-13 17:34N 51°28' E 000°16'7 7.1
2014-Nov-13 16:33N 51°28' E 000°27'1414.0
2014-Nov-13 15:33N 51°29' E 000°49'1716.8
2014-Nov-13 14:33N 51°29' E 001°16'1514.9
2014-Nov-13 13:33N 51°32' E 001°40'1616.1
2014-Nov-13 12:33N 51°38' E 002°04'1514.6
2014-Nov-13 11:33N 51°35' E 002°27'  

Dump ship's entire track history